Location: Dappach
(48.9767°N, 9.6998°E)
Time: 20:15:41
(UTC+00:00)

COSMOS 2428 - Pass Details

Date: 19 August 2024
Orbit: 842 x 857 km, 70.9° (Epoch: 09 September)

Event Time Altitude Azimuth Distance (km) Brightness Sun altitude
Exits shadow 00:21:56 64° 271° (W) 938 2.7 -27.1°
Maximum altitude 00:22:24 68° 301° (WNW) 919 2.8 -27.1°
Drops below altitude 10° 00:28:06 10° 25° (NNE) 2,493 6.1 -26.8°
Sets 00:30:36 0° 28° (NNE) 3,435 7.1 -26.7°
